Regional Weather Roundup
Issued by NWS

Home | Current Version | Previous Version | Graphics & Text | Print | Product List | Glossary On
Versions: 1 2 3 4 5 6 7 8 9 10 11 12 13 14 15 16 17 18 19 20 21 22 23 24 25 26 27 28 29 30 31 32 33 34 35 36 37 38 39 40 41 42 43 44 45 46
000
ASUS45 KBOI 250010
RWRID
WEATHER ROUNDUP FOR IDAHO
NATIONAL WEATHER SERVICE BOISE ID
500 PM MST WED DEC 24 2014

NOTE: "FAIR" INDICATES FEW OR NO CLOUDS BELOW 12000 FEET
WITH NO SIGNIFICANT WEATHER AND/OR OBSTRUCTIONS TO VISIBILITY

IDZ012-014-250100-
SOUTHWEST IDAHO


CITY           SKY/WX    TMP DP  RH WIND       PRES   REMARKS
BOISE          LGT RAIN  34  32  93 CALM      29.47F FOG
CALDWELL       CLOUDY    34  27  75 SW8       29.52S WCI  27
MOUNTAIN HOME  CLOUDY    37  34  87 SE13      29.44F WCI  29
$$

IDZ016-017-250100-
SOUTHCENTRAL IDAHO


CITY           SKY/WX    TMP DP  RH WIND       PRES   REMARKS
JEROME         LGT RAIN  34  31  88 NE14G21   29.50F WCI  25
TWIN FALLS     LGT RAIN  38  32  79 VRB3      29.49F
$$

IDZ019>023-250100-
SOUTHEAST IDAHO


CITY           SKY/WX    TMP DP  RH WIND       PRES   REMARKS
IDAHO FALLS    LGT SNOW  32  28  85 S9        29.59F FOG     WCI  24
POCATELLO      PTCLDY    36  26  67 CALM      29.56F
REXBURG        LGT SNOW  30  29  96 S9        29.61F FOG     WCI  22
$$

IDZ006-010-011-018-031-032-250100-
CENTRAL IDAHO MOUNTAINS


CITY           SKY/WX    TMP DP  RH WIND       PRES   REMARKS
MCCALL         SNOW      29  27  92 NW7       29.48R VSB 1/2 WCI  22
HAILEY         SNOW      28  28 100 CALM      29.54F VSB 1/2
STANLEY          N/A     32  28  85 SE10      29.44F WCI  24
SALMON         CLOUDY    30  27  86 CALM      29.50F
CHALLIS        LGT SNOW  28  26  92 NW3       29.48F VSB 3/4
$$

IDZ002-004-006-007-026-250100-
NORTHERN IDAHO


CITY           SKY/WX    TMP DP  RH WIND       PRES   REMARKS
LEWISTON       CLOUDY    39  35  86 NW7       29.71R WCI  34
LOWELL           N/A     38  36  92 S3        29.65R
COEUR D`ALENE  NOT AVBL
MULLAN PASS    SNOW      26  22  84 N7G18     29.48R VSB 1/4 WCI  18
$$


USA.gov is the U.S. government's official web portal to all federal, state and local government web resources and services.